DLH571 EDDM-LEPA

Flight info

Callsign DLH571
Flight time 1h 47m
Altitude 41000
Route TURBU7S TURBU Y107 TOBSO DCT BAKOR DCT SUMIR DCT MISPO DCT PIDAD DCT TALEP DCT RARQU DCT BALEN UT250 RIXOT
Aircraft A359/H-SDE2E3GHIJ3J4J5LM1ORWXY/LB1D1

Departure

Time 2026-05-04 18:57
Airport Munich Airport (EDDM)

Arrival

Time 2026-05-04 20:45
Airport Palma de Mallorca Airport (LEPA)
Time Latitude Longitude Altitude Speed Heading
2026-05-04 17:52 48.35788 11.79248 1492 ft 0 kts 263°
2026-05-04 18:41 48.35790 11.79276 1476 ft 4 kts 262°
2026-05-04 18:41 48.35794 11.79317 1476 ft 4 kts 259°
2026-05-04 18:41 48.35800 11.79356 1476 ft 4 kts 251°
2026-05-04 18:42 48.35812 11.79390 1476 ft 4 kts 214°
2026-05-04 18:42 48.35822 11.79397 1476 ft 0 kts 174°
2026-05-04 18:49 48.35781 11.79400 1478 ft 12 kts 177°
2026-05-04 18:49 48.35674 11.79416 1485 ft 17 kts 174°
2026-05-04 18:49 48.35549 11.79437 1479 ft 19 kts 173°
2026-05-04 18:49 48.35410 11.79461 1481 ft 21 kts 173°
2026-05-04 18:50 48.35259 11.79488 1485 ft 23 kts 173°
2026-05-04 18:50 48.35118 11.79512 1479 ft 18 kts 173°
2026-05-04 18:50 48.34989 11.79535 1480 ft 14 kts 173°
2026-05-04 18:50 48.34902 11.79550 1480 ft 10 kts 173°
2026-05-04 18:51 48.34886 11.79553 1485 ft 0 kts 173°
2026-05-04 18:52 48.34880 11.79554 1482 ft 4 kts 173°
2026-05-04 18:53 48.34820 11.79572 1476 ft 10 kts 152°
2026-05-04 18:53 48.34801 11.79670 1482 ft 11 kts 86°
2026-05-04 18:53 48.34809 11.79796 1481 ft 13 kts 83°
2026-05-04 18:53 48.34821 11.79944 1484 ft 15 kts 83°
2026-05-04 18:54 48.34834 11.80114 1476 ft 17 kts 83°
2026-05-04 18:54 48.34838 11.80295 1478 ft 12 kts 104°
2026-05-04 18:54 48.34781 11.80382 1476 ft 13 kts 160°
2026-05-04 18:54 48.34685 11.80405 1479 ft 15 kts 173°
2026-05-04 18:55 48.34574 11.80416 1480 ft 17 kts 184°
2026-05-04 18:55 48.34478 11.80370 1488 ft 3 kts 260°
2026-05-04 18:55 48.34478 11.80369 1488 ft 0 kts 261°
2026-05-04 18:56 48.34469 11.80281 1488 ft 31 kts 262°
2026-05-04 18:56 48.34415 11.79580 1476 ft 102 kts 263°
2026-05-04 18:57 48.34309 11.78218 1485 ft 159 kts 263°
2026-05-04 18:57 48.34169 11.76439 1968 ft 172 kts 263°
2026-05-04 18:57 48.34001 11.74670 2771 ft 171 kts 262°
2026-05-04 18:57 48.33824 11.72814 3196 ft 190 kts 261°
2026-05-04 18:58 48.33172 11.70963 3436 ft 214 kts 224°
2026-05-04 18:58 48.31856 11.69893 3886 ft 223 kts 188°
2026-05-04 18:58 48.30305 11.70051 4631 ft 225 kts 168°
2026-05-04 18:58 48.28786 11.70614 5324 ft 231 kts 159°
2026-05-04 18:59 48.27365 11.71819 5977 ft 244 kts 144°
2026-05-04 18:59 48.25976 11.73498 6378 ft 268 kts 141°
2026-05-04 18:59 48.24472 11.75233 7074 ft 276 kts 146°
2026-05-04 18:59 48.22873 11.76860 7959 ft 279 kts 149°
2026-05-04 19:00 48.21252 11.78457 8951 ft 279 kts 149°
2026-05-04 19:00 48.19634 11.80066 9607 ft 280 kts 149°
2026-05-04 19:00 48.17968 11.81579 9889 ft 281 kts 157°
2026-05-04 19:00 48.16063 11.82696 9948 ft 309 kts 163°
2026-05-04 19:01 48.13963 11.83731 9940 ft 323 kts 164°
2026-05-04 19:01 48.11785 11.84792 9933 ft 334 kts 164°
2026-05-04 19:01 48.09563 11.85884 9930 ft 338 kts 163°
2026-05-04 19:01 48.07327 11.86989 10036 ft 341 kts 163°
2026-05-04 19:02 48.05061 11.88111 10689 ft 344 kts 163°
2026-05-04 19:02 48.02785 11.89238 11664 ft 344 kts 163°
2026-05-04 19:02 48.00498 11.90370 12541 ft 348 kts 163°
2026-05-04 19:02 47.98183 11.91515 13393 ft 352 kts 163°
2026-05-04 19:03 47.95845 11.92672 14197 ft 356 kts 164°
2026-05-04 19:03 47.93476 11.93838 14897 ft 361 kts 164°
2026-05-04 19:03 47.91024 11.94699 15665 ft 361 kts 175°
2026-05-04 19:03 47.88510 11.94998 16365 ft 365 kts 180°
2026-05-04 19:04 47.85949 11.95037 17013 ft 371 kts 182°
2026-05-04 19:04 47.83349 11.94948 17685 ft 376 kts 184°
2026-05-04 19:04 47.80713 11.94818 18343 ft 382 kts 184°
2026-05-04 19:04 47.78054 11.94695 19021 ft 384 kts 183°
2026-05-04 19:05 47.75357 11.94590 19681 ft 389 kts 183°
2026-05-04 19:05 47.72639 11.94510 20340 ft 393 kts 182°
2026-05-04 19:05 47.69880 11.94446 21002 ft 398 kts 182°
2026-05-04 19:05 47.67099 11.94399 21641 ft 402 kts 182°
2026-05-04 19:06 47.64286 11.94358 22292 ft 406 kts 182°
2026-05-04 19:06 47.61447 11.94314 22915 ft 411 kts 182°
2026-05-04 19:06 47.58563 11.94268 23550 ft 416 kts 182°
2026-05-04 19:06 47.55824 11.94222 24070 ft 420 kts 182°
2026-05-04 19:07 47.52960 11.94173 24664 ft 422 kts 182°
2026-05-04 19:07 47.50014 11.94123 25276 ft 425 kts 182°
2026-05-04 19:07 47.47057 11.94071 25863 ft 428 kts 182°
2026-05-04 19:07 47.44069 11.93979 26432 ft 430 kts 185°
2026-05-04 19:08 47.41118 11.93569 26986 ft 432 kts 188°
2026-05-04 19:08 47.38130 11.93044 27577 ft 435 kts 189°
2026-05-04 19:08 47.35126 11.92463 28211 ft 435 kts 189°
2026-05-04 19:08 47.32123 11.91858 28771 ft 438 kts 189°
2026-05-04 19:09 47.29089 11.91237 29292 ft 441 kts 189°
2026-05-04 19:09 47.26039 11.90615 29846 ft 444 kts 189°
2026-05-04 19:09 47.22967 11.89992 30307 ft 447 kts 189°
2026-05-04 19:09 47.19868 11.89367 30718 ft 450 kts 189°
2026-05-04 19:10 47.16754 11.88747 30971 ft 453 kts 189°
2026-05-04 19:10 47.13639 11.88132 30998 ft 451 kts 189°
2026-05-04 19:10 47.07438 11.86911 31011 ft 449 kts 189°
2026-05-04 19:11 47.01217 11.85689 31280 ft 455 kts 189°
2026-05-04 19:11 46.98100 11.84947 31787 ft 454 kts 193°
2026-05-04 19:11 46.95046 11.83994 32134 ft 456 kts 194°
2026-05-04 19:12 46.91979 11.82942 32344 ft 461 kts 194°
2026-05-04 19:12 46.86863 11.81166 32893 ft 465 kts 194°
2026-05-04 19:12 46.84102 11.80234 33212 ft 467 kts 194°
2026-05-04 19:13 46.80916 11.79186 33553 ft 470 kts 194°
2026-05-04 19:13 46.77708 11.78154 33839 ft 472 kts 194°
2026-05-04 19:13 46.73460 11.76808 34317 ft 472 kts 194°
2026-05-04 19:13 46.71747 11.76269 34477 ft 472 kts 194°
2026-05-04 19:14 46.68534 11.75260 34814 ft 472 kts 194°
2026-05-04 19:14 46.65714 11.74365 35128 ft 471 kts 195°
2026-05-04 19:14 46.63758 11.73604 35334 ft 470 kts 199°
2026-05-04 19:14 46.62017 11.72726 35520 ft 468 kts 203°
2026-05-04 19:15 46.60591 11.71838 35672 ft 467 kts 207°
2026-05-04 19:15 46.58502 11.70204 35897 ft 465 kts 213°
2026-05-04 19:15 46.55093 11.66851 36293 ft 464 kts 217°
2026-05-04 19:15 46.53932 11.65641 36412 ft 463 kts 218°
2026-05-04 19:16 46.51920 11.63503 36676 ft 463 kts 218°
2026-05-04 19:16 46.49333 11.60724 36994 ft 462 kts 218°
2026-05-04 19:16 46.46751 11.57953 37291 ft 462 kts 218°
2026-05-04 19:16 46.44162 11.55187 37600 ft 462 kts 218°
2026-05-04 19:17 46.41571 11.52437 37920 ft 461 kts 218°
2026-05-04 19:17 46.38979 11.49702 38294 ft 461 kts 218°
2026-05-04 19:17 46.36380 11.46973 38474 ft 462 kts 218°
2026-05-04 19:17 46.33774 11.44240 38719 ft 463 kts 218°
2026-05-04 19:18 46.31165 11.41504 38941 ft 463 kts 218°
2026-05-04 19:18 46.28557 11.38771 39156 ft 462 kts 218°
2026-05-04 19:18 46.25952 11.36045 39356 ft 462 kts 218°
2026-05-04 19:18 46.23387 11.33346 39557 ft 462 kts 218°
2026-05-04 19:19 46.20797 11.30596 39750 ft 462 kts 218°
2026-05-04 19:19 46.18207 11.27838 39906 ft 463 kts 219°
2026-05-04 19:19 46.15614 11.25077 40093 ft 463 kts 218°
2026-05-04 19:19 46.13021 11.22322 40288 ft 463 kts 218°
2026-05-04 19:20 46.10427 11.19571 40449 ft 463 kts 218°
2026-05-04 19:20 46.07824 11.16817 40630 ft 463 kts 218°
2026-05-04 19:20 46.05229 11.14075 40807 ft 463 kts 218°
2026-05-04 19:20 46.02630 11.11335 40946 ft 463 kts 218°
2026-05-04 19:21 46.00027 11.08594 41058 ft 464 kts 218°
2026-05-04 19:21 45.94801 11.03100 41154 ft 466 kts 218°
2026-05-04 19:22 45.89569 10.97613 41149 ft 465 kts 218°
2026-05-04 19:22 45.84338 10.92142 41124 ft 465 kts 218°
2026-05-04 19:23 45.79097 10.86673 41124 ft 465 kts 218°
2026-05-04 19:23 45.73860 10.81220 41121 ft 466 kts 218°
2026-05-04 19:24 45.68614 10.75769 41091 ft 466 kts 218°
2026-05-04 19:24 45.63369 10.70333 41069 ft 465 kts 218°
2026-05-04 19:25 45.58162 10.64950 41062 ft 464 kts 218°
2026-05-04 19:25 45.52931 10.59554 41059 ft 464 kts 218°
2026-05-04 19:26 45.47695 10.54166 41058 ft 464 kts 218°
2026-05-04 19:26 45.42477 10.48810 41047 ft 460 kts 218°
2026-05-04 19:27 45.37291 10.43498 41049 ft 459 kts 218°
2026-05-04 19:27 45.32104 10.38197 41048 ft 459 kts 218°
2026-05-04 19:28 45.26916 10.32906 41050 ft 458 kts 218°
2026-05-04 19:28 45.21745 10.27646 41055 ft 457 kts 218°
2026-05-04 19:29 45.16579 10.22403 41061 ft 457 kts 218°
2026-05-04 19:29 45.11413 10.17171 41051 ft 457 kts 218°
2026-05-04 19:30 45.06284 10.11990 41060 ft 455 kts 218°
2026-05-04 19:30 45.01128 10.06790 41069 ft 455 kts 218°
2026-05-04 19:31 44.95977 10.01591 41057 ft 455 kts 218°
2026-05-04 19:31 44.90856 9.96437 41055 ft 455 kts 218°
2026-05-04 19:32 44.85704 9.91263 41054 ft 454 kts 218°
2026-05-04 19:32 44.80560 9.86108 41054 ft 454 kts 218°
2026-05-04 19:33 44.75417 9.80966 41051 ft 453 kts 218°
2026-05-04 19:33 44.70280 9.75842 41062 ft 452 kts 218°
2026-05-04 19:34 44.65154 9.70739 41069 ft 451 kts 218°
2026-05-04 19:34 44.60041 9.65661 41078 ft 451 kts 218°
2026-05-04 19:35 44.55997 9.61651 41082 ft 451 kts 218°
2026-05-04 19:35 44.50880 9.56588 41085 ft 449 kts 218°
2026-05-04 19:36 44.45802 9.51575 41088 ft 449 kts 218°
2026-05-04 19:36 44.40695 9.46546 41087 ft 449 kts 218°
2026-05-04 19:37 44.35578 9.41516 41090 ft 448 kts 218°
2026-05-04 19:37 44.30479 9.36515 41084 ft 448 kts 218°
2026-05-04 19:38 44.25414 9.31558 41084 ft 448 kts 218°
2026-05-04 19:38 44.20313 9.26577 41083 ft 448 kts 218°
2026-05-04 19:39 44.15208 9.21602 41073 ft 447 kts 218°
2026-05-04 19:39 44.10107 9.16643 41072 ft 447 kts 218°
2026-05-04 19:40 44.05006 9.11693 41065 ft 447 kts 218°
2026-05-04 19:40 43.99899 9.06749 41070 ft 447 kts 217°
2026-05-04 19:41 43.94785 9.01808 41067 ft 448 kts 217°
2026-05-04 19:41 43.89669 8.96876 41067 ft 448 kts 217°
2026-05-04 19:42 43.84551 8.91953 41052 ft 448 kts 217°
2026-05-04 19:42 43.79423 8.87030 41054 ft 448 kts 217°
2026-05-04 19:43 43.74292 8.82115 41055 ft 449 kts 217°
2026-05-04 19:43 43.69189 8.77237 41032 ft 449 kts 217°
2026-05-04 19:44 43.63688 8.73102 41041 ft 456 kts 204°
2026-05-04 19:44 43.57439 8.71238 41050 ft 466 kts 187°
2026-05-04 19:45 43.50979 8.70641 41040 ft 463 kts 193°
2026-05-04 19:45 43.44898 8.68126 41037 ft 453 kts 210°
2026-05-04 19:46 43.39736 8.63309 41036 ft 447 kts 223°
2026-05-04 19:46 43.35083 8.57628 41042 ft 447 kts 225°
2026-05-04 19:47 43.30497 8.51854 41049 ft 447 kts 225°
2026-05-04 19:47 43.25894 8.46124 41049 ft 446 kts 224°
2026-05-04 19:48 43.21273 8.40436 41033 ft 446 kts 224°
2026-05-04 19:48 43.16647 8.34770 41035 ft 446 kts 224°
2026-05-04 19:49 43.12065 8.29170 41034 ft 445 kts 224°
2026-05-04 19:49 43.07496 8.23597 41033 ft 443 kts 224°
2026-05-04 19:50 43.03290 8.18474 41052 ft 442 kts 224°
2026-05-04 19:50 42.99188 8.13485 41051 ft 442 kts 224°
2026-05-04 19:51 42.94587 8.07902 41048 ft 442 kts 224°
2026-05-04 19:51 42.89984 8.02330 41040 ft 442 kts 224°
2026-05-04 19:52 42.85388 7.96776 41053 ft 442 kts 224°
2026-05-04 19:52 42.80783 7.91223 41032 ft 442 kts 224°
2026-05-04 19:53 42.76177 7.85681 41031 ft 442 kts 224°
2026-05-04 19:53 42.71574 7.80155 41034 ft 440 kts 224°
2026-05-04 19:54 42.66983 7.74653 41034 ft 440 kts 224°
2026-05-04 19:54 42.62397 7.69169 41032 ft 439 kts 224°
2026-05-04 19:55 42.57835 7.63724 41026 ft 439 kts 224°
2026-05-04 19:55 42.53218 7.58225 41043 ft 440 kts 224°
2026-05-04 19:56 42.48778 7.52947 41018 ft 439 kts 223°
2026-05-04 19:56 42.44208 7.47527 41012 ft 439 kts 223°
2026-05-04 19:57 42.39606 7.42078 41013 ft 439 kts 223°
2026-05-04 19:57 42.35002 7.36639 41017 ft 438 kts 223°
2026-05-04 19:58 42.30417 7.31234 41018 ft 437 kts 223°
2026-05-04 19:58 42.25836 7.25844 41010 ft 436 kts 223°
2026-05-04 19:59 42.22002 7.21340 41004 ft 436 kts 223°
2026-05-04 19:59 42.17450 7.16003 40998 ft 436 kts 223°
2026-05-04 20:00 42.12869 7.10643 40998 ft 436 kts 223°
2026-05-04 20:00 42.07517 7.04394 41002 ft 435 kts 223°
2026-05-04 20:01 42.03713 6.99961 41001 ft 435 kts 223°
2026-05-04 20:01 41.99160 6.94583 40993 ft 435 kts 224°
2026-05-04 20:02 41.94708 6.89081 40990 ft 435 kts 225°
2026-05-04 20:02 41.90253 6.83565 40994 ft 435 kts 225°
2026-05-04 20:03 41.85782 6.78077 40987 ft 436 kts 224°
2026-05-04 20:03 41.81321 6.72634 40982 ft 437 kts 224°
2026-05-04 20:04 41.76822 6.67160 40976 ft 437 kts 225°
2026-05-04 20:04 41.72326 6.61699 40977 ft 436 kts 225°
2026-05-04 20:05 41.67832 6.56251 40976 ft 436 kts 225°
2026-05-04 20:05 41.63375 6.50857 40971 ft 436 kts 224°
2026-05-04 20:06 41.58867 6.45411 40970 ft 436 kts 224°
2026-05-04 20:06 41.54359 6.39977 40974 ft 437 kts 224°
2026-05-04 20:07 41.49848 6.34549 40968 ft 437 kts 224°
2026-05-04 20:07 41.45331 6.29125 40968 ft 437 kts 224°
2026-05-04 20:08 41.40837 6.23740 40971 ft 437 kts 224°
2026-05-04 20:08 41.36316 6.18333 40967 ft 436 kts 225°
2026-05-04 20:09 41.31807 6.12950 40972 ft 436 kts 225°
2026-05-04 20:09 41.27361 6.07652 40978 ft 436 kts 224°
2026-05-04 20:10 41.22838 6.02273 40971 ft 436 kts 224°
2026-05-04 20:10 41.18320 5.96911 40956 ft 436 kts 225°
2026-05-04 20:11 41.13903 5.91679 40967 ft 436 kts 225°
2026-05-04 20:11 41.09373 5.86323 40968 ft 436 kts 225°
2026-05-04 20:12 41.04841 5.80976 40967 ft 436 kts 225°
2026-05-04 20:12 41.00305 5.75632 40966 ft 436 kts 224°
2026-05-04 20:13 40.95890 5.70390 40974 ft 435 kts 227°
2026-05-04 20:13 40.92119 5.64299 40967 ft 433 kts 236°
2026-05-04 20:13 40.90371 5.61102 40755 ft 432 kts 236°
2026-05-04 20:14 40.88637 5.57855 40505 ft 432 kts 237°
2026-05-04 20:14 40.86917 5.54611 40270 ft 431 kts 237°
2026-05-04 20:14 40.85198 5.51371 40034 ft 430 kts 236°
2026-05-04 20:14 40.83475 5.48135 39792 ft 430 kts 236°
2026-05-04 20:15 40.81750 5.44913 39489 ft 427 kts 236°
2026-05-04 20:15 40.80040 5.41731 39010 ft 424 kts 236°
2026-05-04 20:15 40.78336 5.38567 38385 ft 423 kts 236°
2026-05-04 20:15 40.76632 5.35409 38006 ft 423 kts 236°
2026-05-04 20:16 40.74925 5.32248 37988 ft 423 kts 236°
2026-05-04 20:16 40.71542 5.25995 37203 ft 419 kts 236°
2026-05-04 20:16 40.69843 5.22860 36323 ft 422 kts 236°
2026-05-04 20:17 40.68135 5.19714 35531 ft 422 kts 235°
2026-05-04 20:17 40.66425 5.16574 34761 ft 422 kts 235°
2026-05-04 20:17 40.64740 5.13476 33690 ft 413 kts 235°
2026-05-04 20:17 40.63126 5.10509 32121 ft 413 kts 234°
2026-05-04 20:18 40.61484 5.07498 30832 ft 423 kts 234°
2026-05-04 20:18 40.59776 5.04381 30269 ft 417 kts 234°
2026-05-04 20:18 40.58096 5.01300 29686 ft 411 kts 234°
2026-05-04 20:18 40.56452 4.98279 29091 ft 406 kts 234°
2026-05-04 20:19 40.54815 4.95272 28545 ft 401 kts 234°
2026-05-04 20:19 40.53214 4.92356 27968 ft 396 kts 234°
2026-05-04 20:19 40.51619 4.89451 27408 ft 391 kts 234°
2026-05-04 20:19 40.50039 4.86562 26851 ft 387 kts 234°
2026-05-04 20:20 40.48479 4.83708 26310 ft 383 kts 234°
2026-05-04 20:20 40.46931 4.80879 25774 ft 379 kts 234°
2026-05-04 20:20 40.45396 4.78078 25214 ft 376 kts 235°
2026-05-04 20:20 40.43874 4.75310 24696 ft 373 kts 234°
2026-05-04 20:21 40.42347 4.72555 24144 ft 372 kts 234°
2026-05-04 20:21 40.40827 4.69813 23607 ft 370 kts 235°
2026-05-04 20:21 40.37832 4.64379 22621 ft 378 kts 234°
2026-05-04 20:22 40.36272 4.61557 22502 ft 386 kts 234°
2026-05-04 20:22 40.34693 4.58714 22032 ft 386 kts 234°
2026-05-04 20:22 40.33117 4.55867 21637 ft 384 kts 234°
2026-05-04 20:22 40.31552 4.53030 21280 ft 384 kts 235°
2026-05-04 20:23 40.29989 4.50194 20932 ft 384 kts 234°
2026-05-04 20:23 40.28422 4.47365 20603 ft 383 kts 234°
2026-05-04 20:23 40.26851 4.44537 20251 ft 383 kts 234°
2026-05-04 20:23 40.25286 4.41722 19923 ft 382 kts 234°
2026-05-04 20:24 40.23722 4.38915 19578 ft 382 kts 234°
2026-05-04 20:24 40.22156 4.36110 19227 ft 381 kts 234°
2026-05-04 20:24 40.20596 4.33306 18899 ft 381 kts 234°
2026-05-04 20:24 40.19042 4.30511 18563 ft 380 kts 234°
2026-05-04 20:25 40.17486 4.27718 18217 ft 380 kts 234°
2026-05-04 20:25 40.15926 4.24926 17849 ft 378 kts 234°
2026-05-04 20:25 40.14381 4.22161 17515 ft 376 kts 234°
2026-05-04 20:25 40.12839 4.19406 17185 ft 374 kts 234°
2026-05-04 20:26 40.11322 4.16700 16855 ft 372 kts 234°
2026-05-04 20:26 40.09799 4.13988 16511 ft 370 kts 234°
2026-05-04 20:26 40.08279 4.11280 16195 ft 368 kts 234°
2026-05-04 20:26 40.06767 4.08587 15884 ft 367 kts 234°
2026-05-04 20:27 40.05263 4.05911 15565 ft 365 kts 234°
2026-05-04 20:27 40.03764 4.03247 15250 ft 363 kts 234°
2026-05-04 20:27 40.02267 4.00587 14913 ft 362 kts 234°
2026-05-04 20:27 40.00789 3.97966 14686 ft 353 kts 234°
2026-05-04 20:28 39.99363 3.95440 14441 ft 339 kts 234°
2026-05-04 20:28 39.97989 3.93005 14245 ft 327 kts 233°
2026-05-04 20:28 39.96806 3.90545 14179 ft 322 kts 242°
2026-05-04 20:28 39.95817 3.87877 14072 ft 324 kts 245°
2026-05-04 20:29 39.94911 3.85259 13899 ft 311 kts 245°
2026-05-04 20:29 39.94054 3.82733 13678 ft 299 kts 245°
2026-05-04 20:29 39.93235 3.80295 13461 ft 288 kts 245°
2026-05-04 20:29 39.92451 3.77952 12784 ft 279 kts 246°
2026-05-04 20:30 39.91718 3.75757 11990 ft 278 kts 246°
2026-05-04 20:30 39.91029 3.73691 11584 ft 272 kts 246°
2026-05-04 20:30 39.90283 3.71447 11441 ft 269 kts 246°
2026-05-04 20:30 39.89594 3.69382 11282 ft 269 kts 245°
2026-05-04 20:31 39.88878 3.67243 11010 ft 269 kts 246°
2026-05-04 20:31 39.88169 3.65114 10767 ft 268 kts 246°
2026-05-04 20:31 39.87426 3.62889 10519 ft 266 kts 245°
2026-05-04 20:31 39.86790 3.60996 10319 ft 265 kts 245°
2026-05-04 20:32 39.86128 3.59020 10107 ft 264 kts 245°
2026-05-04 20:32 39.85411 3.56876 9866 ft 264 kts 246°
2026-05-04 20:32 39.84675 3.54684 9595 ft 263 kts 245°
2026-05-04 20:32 39.83946 3.52508 9364 ft 262 kts 245°
2026-05-04 20:33 39.83216 3.50341 9098 ft 261 kts 245°
2026-05-04 20:33 39.82492 3.48180 8831 ft 260 kts 246°
2026-05-04 20:33 39.81773 3.46022 8584 ft 260 kts 246°
2026-05-04 20:33 39.81051 3.43866 8324 ft 259 kts 246°
2026-05-04 20:34 39.80334 3.41720 8078 ft 259 kts 246°
2026-05-04 20:34 39.79616 3.39574 7829 ft 259 kts 246°
2026-05-04 20:34 39.78898 3.37434 7581 ft 258 kts 246°
2026-05-04 20:34 39.78182 3.35304 7329 ft 256 kts 246°
2026-05-04 20:35 39.77467 3.33180 7086 ft 258 kts 246°
2026-05-04 20:35 39.76752 3.31056 6897 ft 255 kts 246°
2026-05-04 20:35 39.76036 3.28935 6711 ft 255 kts 246°
2026-05-04 20:35 39.75324 3.26826 6470 ft 253 kts 246°
2026-05-04 20:36 39.74620 3.24743 6195 ft 251 kts 246°
2026-05-04 20:36 39.73929 3.22698 5922 ft 249 kts 246°
2026-05-04 20:36 39.73232 3.20640 5647 ft 248 kts 246°
2026-05-04 20:36 39.72540 3.18596 5379 ft 247 kts 246°
2026-05-04 20:37 39.71849 3.16559 5128 ft 246 kts 245°
2026-05-04 20:37 39.71157 3.14536 4865 ft 244 kts 245°
2026-05-04 20:37 39.70474 3.12528 4589 ft 242 kts 245°
2026-05-04 20:37 39.69813 3.10573 4408 ft 231 kts 245°
2026-05-04 20:38 39.69183 3.08714 4217 ft 221 kts 246°
2026-05-04 20:38 39.68571 3.06908 3956 ft 216 kts 245°
2026-05-04 20:38 39.67979 3.05165 3812 ft 206 kts 245°
2026-05-04 20:38 39.67405 3.03477 3705 ft 199 kts 246°
2026-05-04 20:39 39.66864 3.01888 3627 ft 187 kts 246°
2026-05-04 20:39 39.66342 3.00358 3558 ft 184 kts 246°
2026-05-04 20:39 39.65823 2.98834 3467 ft 186 kts 245°
2026-05-04 20:39 39.65381 2.97256 3389 ft 187 kts 248°
2026-05-04 20:40 39.64793 2.95763 3304 ft 186 kts 239°
2026-05-04 20:40 39.64133 2.94324 3212 ft 184 kts 240°
2026-05-04 20:40 39.63485 2.92890 3005 ft 184 kts 239°
2026-05-04 20:40 39.62813 2.91481 2754 ft 184 kts 238°
2026-05-04 20:41 39.62153 2.90090 2499 ft 177 kts 239°
2026-05-04 20:41 39.61537 2.88787 2261 ft 162 kts 238°
2026-05-04 20:41 39.60967 2.87587 2054 ft 149 kts 238°
2026-05-04 20:41 39.60447 2.86489 1855 ft 137 kts 237°
2026-05-04 20:42 39.59969 2.85484 1693 ft 126 kts 238°
2026-05-04 20:42 39.59514 2.84512 1507 ft 127 kts 238°
2026-05-04 20:42 39.59064 2.83527 1288 ft 127 kts 237°
2026-05-04 20:42 39.58585 2.82564 1138 ft 127 kts 235°
2026-05-04 20:43 39.58074 2.81622 1008 ft 129 kts 235°
2026-05-04 20:43 39.57615 2.80587 853 ft 136 kts 241°
2026-05-04 20:43 39.57136 2.79493 658 ft 141 kts 238°
2026-05-04 20:43 39.56626 2.78439 426 ft 138 kts 236°
2026-05-04 20:44 39.56130 2.77384 267 ft 134 kts 239°
2026-05-04 20:44 39.55646 2.76367 101 ft 131 kts 238°
2026-05-04 20:44 39.55203 2.75444 35 ft 119 kts 240°
2026-05-04 20:44 39.54857 2.74710 38 ft 71 kts 238°
2026-05-04 20:45 39.54671 2.74321 44 ft 39 kts 238°
2026-05-04 20:45 39.54585 2.74117 43 ft 23 kts 248°
2026-05-04 20:45 39.54552 2.73902 41 ft 24 kts 269°
2026-05-04 20:45 39.54552 2.73804 42 ft 4 kts 270°
2026-05-04 20:46 39.54552 2.73779 42 ft 7 kts 270°
2026-05-04 20:47 39.54575 2.73732 41 ft 6 kts 345°
2026-05-04 20:47 39.54616 2.73766 42 ft 11 kts 49°
2026-05-04 20:47 39.54664 2.73865 42 ft 15 kts 59°
2026-05-04 20:47 39.54722 2.73992 42 ft 18 kts 59°
2026-05-04 20:48 39.54778 2.74108 42 ft 10 kts 52°
2026-05-04 20:48 39.54847 2.74108 41 ft 14 kts 334°
2026-05-04 20:48 39.54951 2.74026 42 ft 19 kts 329°
2026-05-04 20:48 39.55072 2.73932 42 ft 22 kts 329°
2026-05-04 20:49 39.55209 2.73824 42 ft 24 kts 328°
2026-05-04 20:49 39.55359 2.73704 42 ft 26 kts 328°
2026-05-04 20:49 39.55467 2.73619 39 ft 11 kts 328°
2026-05-04 20:49 39.55490 2.73556 37 ft 9 kts 257°
2026-05-04 20:50 39.55477 2.73504 37 ft 5 kts 271°
2026-05-04 20:50 39.55496 2.73471 36 ft 4 kts 319°
2026-05-04 20:50 39.55519 2.73439 35 ft 4 kts 300°
2026-05-04 20:50 39.55522 2.73418 35 ft 1 kts 280°
2026-05-04 20:51 39.55524 2.73407 34 ft 0 kts 280°